Location: Fort Wayne
(41.1310°N, 85.1290°W)
Time: 22:53:59
(UTC-05:00)

Cosmos 2219 Rocket - Visible Passes

Search period start: 23 February 2017 00:00
Search period end: 05 March 2017 00:00
Orbit: 830 x 845 km, 71.0° (Epoch: 23 February)

Date Brightness Start Highest point End Pass type
(mag) Time Alt. Az. Time Alt. Az. Time Alt. Az.
23 Feb 2.5 20:23:47 10° NNW 20:28:49 47° NE 20:28:49 47° NE visible
23 Feb 4.5 22:08:26 10° NW 22:10:35 19° WNW 22:10:35 19° WNW visible
24 Feb 2.4 20:07:28 10° NNW 20:12:50 45° ENE 20:13:35 42° E visible
24 Feb 4.2 21:51:58 10° NW 21:55:22 24° W 21:55:22 24° W visible
25 Feb 2.6 19:51:09 10° N 19:56:27 41° ENE 19:58:31 30° ESE visible
25 Feb 3.9 21:35:31 10° NW 21:40:10 27° WSW 21:40:18 27° WSW visible
26 Feb 2.7 19:34:51 10° N 19:40:05 39° ENE 19:43:37 19° ESE visible
26 Feb 3.8 21:19:04 10° NW 21:23:51 30° WSW 21:25:25 26° SW visible
27 Feb 2.8 19:18:33 10° N 19:23:42 36° ENE 19:28:50 10° SE visible
27 Feb 3.7 21:02:38 10° NW 21:07:33 32° WSW 21:10:46 18° SSW visible
28 Feb 2.9 19:02:15 10° N 19:07:19 33° ENE 19:12:22 10° ESE visible
28 Feb 3.6 20:46:13 10° NW 20:51:14 35° WSW 20:56:16 10° SSW visible
01 Mar 3.5 20:29:47 10° NW 20:34:54 38° WSW 20:40:02 10° S visible
02 Mar 3.4 20:13:23 10° NW 20:18:36 41° WSW 20:23:49 10° S visible
03 Mar 3.3 19:56:59 10° NW 20:02:17 44° WSW 20:07:34 10° S visible
04 Mar 3.2 19:40:35 10° NW 19:45:57 48° WSW 19:51:19 10° S visible
